Weather in Nova Iguaçu

Brazil     22°51′32″S   43°39′55″W
temp.,
°C
wind,
m/s
gust,
m/s
humid.,
%
clouds,
%
prec.,
mm/h
press.,
hPa
HPBL,
m
24 january, sun
sun2400:00+21nw2294100 0.1 101732
03:00+20nw229470 0.1 101660
06:00+19nw229492 0.0 101655
09:00+25nnw256996 0.0 1017650
12:00+30nne3456100 0.0 10161170
15:00+31ne2450100 0.0 10131446
18:00+26s227773 0.0 101367
21:00+22n118586 0.1 101523
25 january, mon
mon2500:00+22nw2285100 0.0 101567
03:00+21nw228569 0.0 101365
06:00+20nw228854 0.0 101366
09:00+27n376867 0.0 1015765
12:00+31n465592 0.0 10141382
15:00+32nne355196 0.0 10111406
18:00+27wnw1273100 0.2 101249
21:00+23wnw1186100 0.4 101424
26 january, tue
tue2600:00+22nw228947 0.0 101434
03:00+21nw239169 0.0 101275
06:00+21nw238855 0.0 1013118
09:00+27n486962 0.0 1014853
12:00+30nne586098 0.0 10131215
15:00+32nne465599 0.0 10111367
18:00+27nnw277683 0.4 1011269
21:00+24nw237892 0.4 101361
27 january, wed
wed2700:00+23nw238576 0.0 101356
03:00+22nnw239080 0.0 101294
06:00+22nw2589100 0.0 1012193
09:00+27n5106697 0.0 1013967
12:00+32n695260 0.0 10121606
15:00+33nne575069 0.0 10091726
18:00+28n396788 0.0 1009489
21:00+25n296594 0.0 1011317
28 january, thu
thu2800:00+24nnw3126872 0.0 1011524
03:00+23nnw3107483 0.0 1010409
06:00+22nw31075100 0.0 1010378
09:00+27n4959100 0.0 1011666
12:00+32n5848100 0.0 10091212
15:00+34nne464586 0.0 10071625
18:00+29nne26650 0.0 1008235
21:00+25nnw25700 0.0 1010142